Location: Newark
(7.0858°N, 171.3717°E)
Time: 20:40:52
(UTC+00:00)

Vanguard 2 - Pass Details

Date: 29 November 2020
Orbit: 553 x 2937 km, 32.9° (Epoch: 17 January)

Event Time Altitude Azimuth Distance (km) Brightness Sun altitude
Rises 15:43:36 0° 214° (SW) 6,780 12.2 -39.6°
Reaches altitude 10° 15:49:44 10° 202° (SSW) 5,650 11.9 -38.1°
Maximum altitude 16:02:07 25° 155° (SSE) 3,952 11.4 -35.3°
Drops below altitude 10° 16:11:37 10° 105° (ESE) 4,308 12.2 -33.1°
Sets 16:15:24 0° 92° (E) 4,938 12.6 -32.2°
